Regional Weather Roundup
Issued by NWS

Home | Current Version | Previous Version | Text Only | Print | Product List | Glossary On
Versions: 1 2 3 4 5 6 7 8 9 10 11 12 13 14 15 16 17 18 19 20 21 22 23 24 25 26 27
000
ASUS44 KBMX 201310
RWRAL

ALABAMA REGIONAL WEATHER ROUNDUP
NATIONAL WEATHER SERVICE BIRMINGHAM AL
800 AM CDT SUN APR 20 2014

NOTE: "FAIR" INDICATES FEW OR NO CLOUDS BELOW 12,000 FEET
WITH NO SIGNIFICANT WEATHER AND/OR OBSTRUCTIONS TO VISIBILITY.

THE REMARK "TC" DENOTES TEMPERATURE IN DEGREES CELSIUS.

ALZ001>011-014-016>018-020-201400-
NORTH ALABAMA

CITY           SKY/WX    TMP DP  RH WIND       PRES   REMARKS
MUSCLE SHOALS  SUNNY     54  45  71 CALM      30.26R
HUNTSVILLE     SUNNY     56  49  77 CALM      30.25R
DECATUR        SUNNY     55  49  80 CALM      30.26R
HALEYVILLE     FAIR      56  46  69 SE6       30.27R
GADSDEN        NOT AVBL
$$

ALZ012-013-022-023-030>036-040>044-201400-
WEST CENTRAL ALABAMA

CITY           SKY/WX    TMP DP  RH WIND       PRES   REMARKS
TUSCALOOSA     SUNNY     57  49  74 CALM      30.25R
$$

ALZ015-024>027-033>036-040>044-201400-
CENTRAL ALABAMA

CITY           SKY/WX    TMP DP  RH WIND       PRES   REMARKS
BIRMINGHAM     SUNNY     59  41  51 VRB7      30.26R
MONTGOMERY     CLOUDY    59  48  67 NE14      30.21R
SHELBY CO ARPT SUNNY     58  45  62 E5        30.24R
MAXWELL AFB    PTSUNNY   63  55  73 NE12      30.21R
GREENVILLE     FAIR      60  58  92 NE10      30.17S
$$

ALZ019-021-028-029-037-038-045>048-201400-
EAST CENTRAL ALABAMA

CITY           SKY/WX    TMP DP  RH WIND       PRES   REMARKS
ANNISTON       MOSUNNY   54  45  71 E5        30.24S
ALEXANDER CITY SUNNY     58  44  60 CALM      30.23R
AUBURN         CLOUDY    54  45  71 NE13G22   30.22S
$$

ALZ051>064-201400-
SOUTHWEST ALABAMA

CITY           SKY/WX    TMP DP  RH WIND       PRES   REMARKS
MOBILE         MOSUNNY   58  53  84 NE10      30.19S
BROOKLEY FIELD SUNNY     60  52  74 NE13      30.21R
EVERGREEN      CLOUDY    56  49  77 N3        30.22R
$$

ALZ049-050-065>069-201400-
SOUTHEAST ALABAMA

CITY           SKY/WX    TMP DP  RH WIND       PRES   REMARKS
DOTHAN         CLOUDY    53  49  86 NE10      30.20R
OZARK          CLOUDY    54  50  85 NE13      30.17R
TROY           CLOUDY    56  48  74 NE7       30.19R
EUFAULA        CLOUDY    55  48  77 VRB6      30.17R
$$



USA.gov is the U.S. government's official web portal to all federal, state and local government web resources and services.